CAPE
0 0 0 0 0 0 0 0 0 0 0 0 0 0 0 0 0 0 0 0 0 0 0 0 0 0 1 385 725 1054 1661 1967 2137 1980 1727 1450 992 628 530 234 393 546 627 738
0 0 0 0 0 0 0 0 0 0 0 0 0 0 0 0 0 0 0 0 0 0 0 0 0 0 43 209 940 1454 2233 2038 2018 1774 1488 1192 636 464 343 327 368 392 368 386
0 0 0 0 0 0 0 0 0 0 0 0 0 0 0 0 0 0 0 0 0 0 0 0 0 0 354 603 1233 1635 2208 1795 1812 1643 1382 782 308 259 285 275 484 441 386 533
0 0 0 0 0 0 0 0 0 0 0 0 0 0 0 0 0 0 0 0 0 0 0 0 0 124 537 774 910 1112 2088 1846 1645 1419 1055 628 439 402 314 327 359 595 331 393
0 0 0 0 0 0 0 0 0 0 0 0 0 0 0 0 0 0 0 0 0 0 0 0 0 435 700 712 912 1582 1697 1542 1256 885 603 258 169 320 240 315 399 402 68 121
0 0 0 0 0 0 0 0 0 0 0 0 0 0 0 0 0 0 0 0 0 0 0 12 529 630 682 943 1291 1453 1443 1106 929 565 493 423 365 339 181 343 315 208 33 198
2 2 0 0 0 0 0 0 0 0 0 0 0 0 0 0 0 0 0 0 0 58 344 496 596 662 871 1079 1173 1132 1003 592 768 742 271 580 106 254 227 118 113 126 180 178
5 1 0 0 0 0 0 0 0 0 0 0 0 0 0 0 0 0 0 0 308 398 387 448 525 671 887 1018 922 840 561 503 646 300 486 352 177 114 200 94 38 67 18 80
69 14 1 0 0 0 0 0 0 0 0 0 0 0 0 0 0 0 0 1 352 399 464 482 403 646 874 816 559 626 521 453 442 232 406 376 246 262 139 99 8 4 1 0
45 0 0 0 0 0 0 0 0 0 0 0 0 0 0 0 0 0 0 194 278 340 425 348 419 607 649 592 533 512 417 395 359 458 350 187 321 206 123 16 8 31 0 2
4 1 0 0 0 0 0 0 0 0 0 0 0 0 0 0 0 0 2 262 263 300 368 342 492 530 488 474 488 405 352 372 284 405 173 174 217 102 1 1 12 0 0 17
19 22 0 0 0 0 0 0 0 0 0 0 0 0 0 22 0 0 10 373 275 358 328 407 472 422 415 396 441 363 280 279 148 382 254 257 176 33 1 0 9 0 0 0
30 0 4 0 0 9 4 0 0 0 0 0 0 0 0 0 69 83 298 359 397 348 340 392 328 308 305 306 309 283 136 82 169 380 293 323 238 78 20 3 25 0 0 23
11 0 2 10 23 0 4 0 0 0 0 0 0 0 0 0 216 329 368 347 316 294 338 283 236 190 266 276 226 142 38 48 105 223 184 387 180 126 27 5 15 14 3 14
3 31 5 9 6 9 0 0 0 0 0 0 0 0 3 216 421 460 311 279 241 284 301 249 178 190 203 171 85 15 17 23 44 308 385 384 168 122 8 8 6 14 20 6
14 129 42 5 11 13 0 0 0 0 0 0 0 0 21 142 539 518 348 293 290 314 299 231 195 254 221 141 0 0 0 25 137 283 431 573 405 242 82 35 70 1 24 31
2 31 29 21 20 6 0 0 0 0 0 0 0 0 174 100 124 193 215 261 272 381 281 269 303 264 169 0 0 0 1 13 257 308 461 711 368 79 103 40 8 19 41 112
0 5 17 113 9 0 0 100 0 0 0 60 6 126 207 110 4 0 0 31 174 256 212 211 241 157 14 0 0 0 0 0 117 324 391 248 75 9 21 39 16 84 7 11
0 1 17 40 23 0 0 4 5 2 149 246 100 6 0 57 5 11 3 1 0 155 142 153 229 104 0 0 0 0 0 0 7 168 74 41 20 10 147 215 38 12 40 45
16 0 17 41 8 35 9 0 0 0 78 62 23 20 45 53 19 0 0 2 0 15 200 338 256 3 0 0 0 0 0 0 0 146 53 37 24 127 91 180 77 22 64 75
4 19 21 13 35 5 7 3 0 54 10 36 3 7 13 0 0 0 0 0 17 42 155 367 223 1 0 0 0 0 0 0 0 127 89 68 170 291 176 133 51 117 204 159
17 13 16 16 7 6 1 3 11 8 0 14 0 1 71 65 55 30 23 40 45 42 236 460 209 4 0 0 0 0 0 0 0 51 208 281 294 560 331 151 123 69 85 59
13 17 3 11 8 25 17 16 24 21 10 0 1 0 0 2 1 1 158 186 93 113 110 574 288 2 0 0 0 0 0 0 7 56 309 304 163 170 146 149 52 79 30 48
8 12 3 12 3 21 23 3 1 0 0 0 0 0 0 0 0 0 0 8 3 44 154 523 252 8 0 0 0 0 0 0 31 271 187 211 261 145 169 88 76 109 101 167
8 5 12 9 13 7 26 0 0 0 0 0 0 0 0 0 0 0 0 0 0 0 138 390 337 58 1 0 0 0 0 0 135 288 185 148 299 250 132 0 0 0 34 356
3 7 13 21 9 10 5 2 0 0 0 0 0 0 0 0 0 0 0 0 0 19 152 447 543 173 33 0 0 0 0 0 95 370 272 229 310 373 146 0 0 0 0 0
CIN
0 0 0 0 0 0 0 0 0 0 0 0 0 0 0 0 0 0 0 0 0 0 0 0 0 0 -41 -200 -278 -268 -342 -406 -315 -287 -276 -247 -275 -313 -276 -301 -192 -181 -140 -79
0 0 0 0 0 0 0 0 0 0 0 0 0 0 0 0 0 0 0 0 0 0 0 0 0 0 -210 -269 -278 -312 -348 -331 -300 -287 -301 -282 -326 -340 -306 -283 -193 -166 -136 -98
0 0 0 0 0 0 0 0 0 0 0 0 0 0 0 0 0 0 0 0 0 0 0 0 0 0 -357 -303 -338 -362 -303 -327 -291 -265 -242 -322 -395 -370 -288 -244 -165 -153 -135 -107
0 0 0 0 0 0 0 0 0 0 0 0 0 0 0 0 0 0 0 0 0 0 0 0 0 -318 -339 -421 -430 -392 -243 -235 -248 -239 -255 -302 -295 -245 -229 -190 -191 -117 -127 -76
0 0 0 0 0 0 0 0 0 0 0 0 0 0 0 0 0 0 0 0 0 0 0 0 -14 -432 -474 -480 -441 -322 -249 -224 -280 -295 -309 -346 -283 -206 -190 -186 -125 -94 -160 -115
0 0 0 0 0 0 0 0 0 0 0 0 0 0 0 0 0 0 0 0 0 0 0 -162 -456 -466 -468 -451 -359 -302 -263 -295 -296 -337 -288 -219 -168 -139 -186 -143 -112 -112 -143 -81
0 -2 0 0 0 0 0 0 0 0 0 0 0 0 0 0 0 0 0 0 0 -290 -333 -412 -453 -448 -415 -386 -353 -336 -325 -376 -280 -233 -279 -136 -231 -163 -143 -157 -126 -112 -91 -68
-2 -2 0 0 0 0 0 0 0 0 0 0 0 0 0 0 0 0 0 0 -201 -300 -371 -413 -451 -468 -401 -384 -390 -371 -389 -354 -264 -269 -163 -147 -158 -174 -119 -145 -128 -110 -128 -88
-34 -6 -20 0 0 0 0 0 0 0 0 0 0 0 0 0 0 0 0 -10 -207 -283 -339 -396 -436 -420 -382 -397 -432 -383 -351 -312 -240 -217 -141 -105 -157 -115 -108 -99 -122 -37 -61 0
-13 -8 0 0 0 0 0 0 0 0 0 0 0 0 0 0 0 0 0 -157 -242 -309 -355 -402 -415 -410 -394 -393 -388 -352 -318 -255 -188 -117 -107 -130 -89 -99 -79 -132 -103 -84 0 -47
-30 -19 0 0 0 0 0 0 0 0 0 0 0 0 0 0 0 0 -15 -209 -258 -300 -359 -393 -390 -379 -370 -381 -348 -321 -255 -193 -156 -97 -127 -103 -100 -100 -38 -57 -98 0 0 -82
-30 -31 0 0 0 0 0 0 0 0 0 0 0 0 -4 -59 -3 0 -10 -208 -281 -301 -336 -377 -373 -363 -363 -342 -301 -259 -213 -161 -162 -82 -92 -97 -103 -143 -66 0 -108 0 0 0
-80 0 -1 -1 0 -12 -13 0 0 0 0 0 0 0 0 0 -30 -106 -153 -183 -271 -302 -316 -352 -359 -355 -340 -311 -261 -213 -200 -191 -129 -85 -99 -75 -82 -110 -85 -67 -94 0 0 -41
-8 0 -6 0 -12 0 0 0 0 0 0 0 0 0 0 0 -53 -116 -141 -203 -234 -280 -313 -331 -332 -341 -291 -253 -215 -211 -243 -234 -177 -99 -109 -63 -99 -83 -41 -30 -41 -47 -46 -42
-16 -18 -17 -20 -16 0 0 0 0 0 0 0 0 0 -42 -61 -80 -123 -160 -195 -241 -256 -284 -287 -321 -297 -266 -248 -253 -283 -318 -269 -227 -81 -67 -77 -100 -82 -67 -36 -33 -36 -32 -40
-3 0 0 -56 -46 -5 0 0 0 0 0 0 0 0 -100 -74 -70 -95 -97 -158 -194 -213 -237 -243 -270 -234 -209 -242 0 0 0 -264 -163 -83 -70 -65 -68 -39 -43 -49 -31 -32 -32 -45
-2 -16 0 -11 -15 -38 0 0 0 0 0 0 0 0 -12 -17 -130 -184 -101 -127 -149 -173 -185 -217 -211 -183 -231 0 0 0 -95 -338 -98 -75 -76 -52 -33 -68 -45 -20 -15 -34 -38 -35
0 -4 -2 -1 0 0 0 -101 0 0 0 -43 -21 -111 -82 -86 -121 0 0 -199 -98 -138 -155 -206 -213 -253 -110 0 0 0 0 -74 -155 -48 -57 -65 -91 -91 -45 -37 -45 -52 -60 -58
0 -22 0 -4 0 0 0 -19 -24 -38 -84 -99 -199 -297 0 -135 -282 -349 -322 -175 0 -214 -183 -225 -245 -281 0 0 0 0 0 0 -217 -84 -140 -143 -127 -74 -33 -38 -60 -66 -52 -51
-11 -2 -5 0 -4 0 0 0 0 0 -7 -80 -96 -176 -198 -113 -255 0 0 -115 0 -338 -263 -209 -246 -22 0 0 0 0 0 0 0 -101 -173 -184 -146 -48 -35 -35 -53 -70 -63 -49
0 -2 -2 0 0 0 0 0 0 -29 -2 -97 -53 -101 -140 -65 0 0 0 0 -271 -255 -226 -215 -253 -23 0 0 0 0 0 0 0 -132 -137 -160 -83 -56 -82 -70 -77 -65 -54 -60
0 0 0 -1 0 0 0 0 0 0 0 -82 0 -52 -113 -160 -217 -166 -235 -253 -221 -208 -195 -218 -281 -245 0 0 0 0 0 0 0 -200 -109 -114 -98 -47 -72 -65 -74 -92 -78 -82
0 0 0 0 0 0 0 0 -3 -23 -27 -3 -13 0 -17 -172 -119 -22 -206 -199 -199 -230 -229 -178 -285 -26 0 0 0 0 0 0 -194 -209 -136 -121 -141 -132 -130 -95 -128 -105 -115 -94
0 0 0 0 0 0 0 -21 -2 0 0 0 0 0 0 0 0 0 0 -325 -271 -262 -249 -178 -278 -360 0 0 0 0 0 0 -194 -200 -182 -187 -136 -151 -141 -159 -144 -134 -118 -65
-6 -1 0 0 0 -4 -1 0 0 -5 0 0 0 0 0 0 0 0 0 0 0 0 -249 -208 -253 -342 -142 0 0 0 0 0 -270 -200 -210 -232 -174 -147 -179 0 0 0 -104 -87
-1 -1 0 0 -4 -6 -1 -11 0 0 0 0 0 0 0 0 0 0 0 0 0 -411 -257 -162 -221 -296 -370 0 0 0 0 0 -303 -219 -205 -213 -213 -147 -229 0 0 0 0 0
Wind_Speed
8 9 22 37 24 15 15 18 20 20 18 15 23 25 26 21 12 15 14 14 15 14 11 8 6 9 5 3 7 10 11 11 11 9 8 4 5 4 4 3 7 7 6 6
10 24 26 17 16 18 19 24 24 15 11 14 19 18 22 22 14 18 22 11 11 8 8 9 9 8 9 9 8 8 10 13 8 9 4 4 5 3 4 5 5 8 8 7
17 16 17 21 18 20 25 26 20 20 10 18 14 16 19 17 15 8 10 9 9 12 12 10 10 8 9 8 9 10 9 9 8 9 6 5 5 4 3 1 3 4 7 7
17 19 22 20 22 21 25 14 21 18 11 17 10 18 21 13 17 19 17 14 19 14 15 13 10 7 11 8 8 10 9 9 9 9 7 8 5 4 3 4 3 5 7 6
23 14 9 19 22 20 23 15 18 13 16 17 19 10 15 9 9 9 10 11 11 13 13 12 8 13 11 9 8 8 10 9 9 8 8 6 6 4 3 4 8 5 5 6
17 14 17 17 17 19 16 16 18 16 12 11 18 15 23 14 11 9 9 10 13 11 9 6 15 16 12 11 9 10 9 7 8 8 8 9 8 5 6 5 5 4 3 3
12 14 18 19 18 17 16 12 6 10 11 19 14 13 17 7 13 22 15 13 6 8 13 18 19 15 14 13 12 9 9 8 8 9 8 8 8 8 8 6 5 6 3 1
8 9 9 10 17 11 13 16 9 14 12 17 13 9 13 20 12 10 10 7 8 11 13 13 13 14 14 14 11 9 10 8 9 9 8 7 8 5 4 4 4 4 3 4
6 8 12 17 16 14 19 17 19 17 9 9 6 14 21 26 20 10 14 10 11 14 14 15 12 13 14 13 10 10 10 8 8 8 7 7 6 8 6 6 4 3 5 3
1 8 8 16 14 15 19 10 7 11 14 14 7 13 14 12 19 16 8 15 13 14 15 13 11 13 12 11 11 10 9 8 7 8 7 6 7 7 6 6 5 5 4 2
8 4 9 10 4 8 8 17 12 9 8 12 6 12 11 20 15 11 12 17 17 16 16 13 13 13 11 10 11 10 8 8 8 7 6 7 7 7 6 6 5 5 3 5
3 3 7 13 18 17 19 21 16 9 19 9 5 11 8 6 7 10 14 17 16 18 15 15 16 13 12 12 10 9 8 8 8 7 7 6 6 7 6 5 6 5 4 3
4 4 6 8 6 8 7 12 15 7 5 20 10 14 4 11 7 10 20 18 17 17 16 16 15 13 13 10 10 8 8 8 7 8 8 6 8 7 6 5 6 5 4 4
5 4 7 9 10 8 12 21 16 12 10 8 13 19 10 13 8 16 18 18 19 17 18 16 13 12 12 11 9 9 8 8 7 10 9 8 7 7 6 5 6 5 5 4
3 5 10 15 18 12 16 19 20 16 15 12 16 8 12 6 9 15 17 19 18 17 17 15 14 12 12 10 10 9 7 7 8 9 10 8 7 7 6 5 4 3 5 3
4 4 10 13 14 11 18 20 19 20 23 18 20 19 7 1 9 11 16 18 17 18 18 15 15 14 13 12 11 8 8 7 12 11 9 8 9 7 6 5 5 4 3 6
8 5 3 5 9 9 8 16 18 14 19 22 19 16 8 8 12 9 9 15 17 18 17 16 15 15 12 12 10 9 8 8 12 11 10 9 8 6 5 5 6 5 5 5
12 3 0 5 2 5 6 10 16 17 15 19 10 19 8 12 15 11 9 11 9 20 16 14 13 12 13 9 10 8 9 8 11 8 10 10 10 7 6 6 6 4 3 4
13 5 3 3 3 13 13 11 12 7 8 19 20 22 8 1 18 10 8 5 6 6 9 14 14 13 11 13 10 11 8 8 7 10 10 10 10 7 7 6 6 4 4 3
4 9 4 3 5 7 6 21 23 19 6 12 10 10 8 5 7 2 4 3 6 6 3 13 16 15 14 12 10 10 8 8 7 13 10 11 9 9 9 7 6 3 3 4
1 1 5 3 2 3 13 26 30 6 1 6 7 6 9 6 2 3 4 5 4 4 4 14 17 15 14 14 11 9 8 8 7 12 12 9 8 8 7 7 4 4 5 6
4 4 1 2 1 2 15 17 8 6 10 8 8 7 6 5 5 5 5 7 5 6 6 14 14 13 13 14 11 9 9 8 7 11 11 10 10 8 7 8 4 6 6 7
2 5 2 6 5 4 13 16 12 7 9 8 6 7 7 8 8 7 7 8 5 6 4 10 14 13 11 13 11 9 9 7 7 11 13 13 10 8 6 7 7 5 5 6
6 8 3 1 6 6 11 14 13 13 15 15 12 8 9 8 9 11 13 12 13 6 3 5 15 14 12 12 10 9 8 7 8 12 14 9 12 8 6 5 5 6 5 5
2 5 7 2 5 4 9 16 16 15 14 11 12 8 12 12 11 13 14 14 14 13 6 4 11 13 13 13 9 8 9 7 8 14 12 8 10 10 6 3 1 4 4 9
3 2 2 2 8 5 4 7 16 15 9 8 10 10 12 14 13 16 14 11 12 12 15 5 12 13 14 14 12 8 10 8 10 13 10 8 9 8 6 6 4 10 8 6
Wind_Direction
233 219 222 220 221 239 262 234 246 246 242 255 254 259 266 266 249 261 258 260 245 242 235 237 226 242 260 164 158 169 145 151 145 150 150 138 137 133 114 133 154 159 156 166
235 231 232 242 238 240 248 262 259 265 253 244 247 255 251 253 256 250 250 254 254 260 228 236 248 239 180 163 140 131 132 148 143 150 123 124 133 134 128 143 178 148 151 154
240 250 230 237 230 235 230 238 252 259 294 282 296 289 282 282 276 273 258 255 230 217 227 234 234 202 142 141 136 121 125 130 118 126 117 96 93 60 82 128 144 157 133 122
257 251 243 249 226 226 243 236 246 261 251 255 246 273 261 267 268 257 259 253 258 259 259 244 232 147 146 148 124 115 119 123 126 129 123 137 135 139 171 156 135 134 136 145
243 274 261 250 247 228 251 228 258 254 242 261 258 260 261 202 249 282 266 259 251 242 230 222 186 133 123 115 115 114 121 115 125 126 125 125 121 135 123 124 119 125 121 135
255 244 253 264 272 246 266 241 246 257 260 268 242 227 259 240 253 249 259 258 258 257 245 117 113 118 120 113 107 116 115 114 114 120 124 124 109 138 113 117 118 127 125 151
262 257 243 255 269 270 250 235 249 235 229 239 218 240 249 245 226 241 243 255 267 108 111 122 126 129 126 122 119 118 114 115 109 114 117 100 114 111 118 134 138 133 126 169
237 275 272 274 235 258 252 223 212 216 212 251 256 248 252 243 239 240 237 230 126 105 110 112 122 124 128 124 122 120 121 121 110 116 114 114 114 115 116 103 120 141 155 174
11 264 302 316 308 245 252 249 224 248 277 247 239 244 265 259 256 239 240 156 126 121 119 122 122 123 125 128 128 121 129 121 118 124 121 119 100 93 100 97 110 129 133 159
293 290 276 294 318 297 231 254 236 222 231 256 232 258 255 289 236 236 176 136 129 122 121 126 121 122 128 131 128 123 125 129 133 130 130 131 128 121 127 116 131 128 150 176
345 252 273 304 245 272 284 240 247 234 199 235 245 266 254 236 221 215 159 143 139 135 133 132 125 128 134 127 131 132 132 133 138 134 139 143 134 133 124 135 134 139 178 173
95 285 294 271 272 277 280 286 225 231 222 247 212 260 294 98 113 146 148 142 136 134 135 129 131 135 130 134 128 130 132 132 149 140 143 133 118 116 121 125 133 156 162 192
21 323 310 297 250 243 251 281 232 226 223 225 239 245 278 282 107 109 131 131 130 133 130 129 134 134 135 131 133 132 137 150 152 147 142 129 125 125 135 153 153 175 203 229
110 252 234 273 304 324 298 317 327 322 225 221 238 252 286 273 127 132 134 135 136 136 134 138 139 138 139 140 143 144 149 164 146 154 148 139 137 137 158 171 167 191 207 233
148 265 255 277 283 287 271 282 297 310 292 223 239 254 228 195 124 135 132 132 136 137 137 145 143 142 144 143 146 155 154 167 148 137 148 144 134 144 150 180 189 191 196 184
176 264 294 290 278 219 271 280 283 277 278 280 240 244 299 15 101 127 139 141 138 139 146 148 145 146 151 147 152 152 151 163 136 148 141 137 135 144 155 177 199 190 154 138
250 203 320 263 108 147 266 255 262 261 273 269 237 222 137 67 36 67 118 133 142 144 152 150 151 152 149 148 147 150 150 130 145 152 147 141 145 151 160 182 154 138 134 129
249 250 318 285 311 148 246 328 218 229 268 292 241 118 108 129 107 63 53 71 134 153 159 152 150 146 147 138 141 132 136 140 151 155 152 132 148 161 172 143 140 122 111 124
220 163 249 255 311 321 309 8 357 335 6 2 88 90 296 194 90 41 37 62 58 57 164 152 146 145 138 139 140 132 137 148 149 148 145 139 149 153 137 130 143 142 130 129
292 160 190 326 191 243 16 331 331 318 67 322 48 64 45 4 59 344 358 37 30 14 62 147 141 142 136 144 134 131 150 160 179 151 149 147 150 136 150 147 152 164 139 152
319 142 222 228 293 356 333 328 307 106 69 280 26 39 75 69 172 228 56 45 36 326 359 147 142 147 145 145 133 139 153 174 185 149 144 146 144 128 125 133 147 130 120 111
344 307 183 154 6 271 353 317 47 328 302 278 35 20 48 51 51 53 39 44 27 338 55 147 138 144 144 144 136 143 159 194 163 138 134 127 132 135 139 144 132 125 128 118
23 352 311 348 56 24 327 348 330 286 261 357 43 15 21 39 21 7 20 20 17 328 21 151 142 142 145 146 145 141 187 173 151 132 134 141 136 137 144 133 132 137 137 139
341 8 21 256 357 5 340 322 311 342 17 14 353 19 21 31 19 20 30 23 10 340 282 150 148 148 146 152 148 152 174 169 140 133 145 141 137 141 151 147 151 146 149 156
235 343 352 308 7 3 3 320 333 339 7 6 356 5 26 22 24 27 29 14 359 342 333 152 163 155 153 154 155 153 172 158 136 146 151 146 146 153 164 112 176 170 199 180
338 52 15 345 299 235 295 341 314 332 345 356 335 26 23 27 18 27 21 4 347 349 2 11 166 158 158 156 164 161 173 149 148 148 158 160 151 163 156 141 92 29 22 192